Welcome to the New NWS' Forecast!
Most changes are behind the scenes, but click here for differences you might notice.

Regional Weather Roundup (RWR)

Issued by Gray - Portland, ME (GYX)

                            
405 
ASUS41 KGYX 131805
RWRGYX
WEATHER ROUNDUP FOR MAINE AND NEW HAMPSHIRE
NATIONAL WEATHER SERVICE GRAY ME
200 PM EDT MON AUG 13 2018

MEZ002-005-006-010-012-015-018-020-021-024-026-027-029-131900-
MAINE
  
CITY           SKY/WX    TMP DP  RH WIND       PRES   REMARKS
PORTLAND       CLOUDY    69  67  93 E7        30.09F FOG              
6HR MIN TEMP:  67; 6HR MAX TEMP:  70;                                

SANFORD        CLOUDY    71  68  90 NE6       30.08F                  
BAR HARBOR     CLOUDY    68  62  81 VRB5      30.11F                  
WISCASSET      CLOUDY    74  69  85 SE7       30.10F                  
6HR MIN TEMP:  66; 6HR MAX TEMP:  74;                                

ROCKLAND       CLOUDY    69  65  86 VRB5      30.10F                  
FRYEBURG       CLOUDY    72  69  90 CALM      30.11F                  
6HR MIN TEMP:  65; 6HR MAX TEMP:  72; 6HR PCP:  0.01;                

LEWISTONAUBURN CLOUDY    73  68  84 NE6       30.10S                  
AUGUSTA        CLOUDY    76  68  76 S7        30.09F                  
6HR MIN TEMP:  65; 6HR MAX TEMP:  76;                                

WATERVILLE     PTSUNNY   78  69  73 CALM      30.06F                  
BANGOR         CLOUDY    75  67  76 S8        30.10F                  
6HR MIN TEMP:  68; 6HR MAX TEMP:  78;                                

GREENVILLE       N/A     76  63  64 VRB5      30.09F                  
6HR MIN TEMP:  67; 6HR MAX TEMP:  79;                                

MILLINOCKET    FAIR      80  65  59 VRB5      30.09F                  
6HR MIN TEMP:  67; 6HR MAX TEMP:  82;                                

HOULTON        FAIR      81  63  54 VRB5      30.06F                  
6HR MIN TEMP:  67; 6HR MAX TEMP:  82;                                

PRESQUE ISLE   PTSUNNY   82  62  50 CALM      30.06F                  
6HR MIN TEMP:  66; 6HR MAX TEMP:  84;                                

FRENCHVILLE    FAIR      85  61  44 VRB5      30.05F                  
6HR MIN TEMP:  66; 6HR MAX TEMP:  85;                                

CARIBOU        FAIR      84  60  44 S9        30.05F                  
6HR MIN TEMP:  66; 6HR MAX TEMP:  85;                                

$$

NHZ002-005-008-009-011-012-014-131900-
NEW HAMPSHIRE
  
CITY           SKY/WX    TMP DP  RH WIND       PRES   REMARKS
PORTSMOUTH     CLOUDY    74  68  80 NE8       30.05F                  
ROCHESTER      CLOUDY    74  70  87 VRB3      30.07F                  
6HR MIN TEMP:  66; 6HR MAX TEMP:  74; 6HR PCP:  0.01;                

NASHUA         CLOUDY    71  70  96 E5        30.07F                  
MANCHESTER     CLOUDY    73  68  84 VRB6      30.05F                  
6HR MIN TEMP:  68; 6HR MAX TEMP:  73; 6HR PCP: TRACE;                

CONCORD        CLOUDY    73  68  84 VRB7      30.07F                  
6HR MIN TEMP:  68; 6HR MAX TEMP:  74;                                

LACONIA        CLOUDY    69  66  90 NE7       30.10F                  
PLYMOUTH       CLOUDY    69  65  87 CALM      30.09F                  
BERLIN         PTSUNNY   79  67  66 S6        30.09F                  
6HR MIN TEMP:  61; 6HR MAX TEMP:  79;                                

WHITEFIELD     LGT RAIN  78  67  68 CALM      30.08F                  
6HR MIN TEMP:  62; 6HR MAX TEMP:  80; 6HR PCP: TRACE;                

JAFFREY        CLOUDY    70  69  97 CALM      30.10S FOG              
6HR MIN TEMP:  67; 6HR MAX TEMP:  70; 6HR PCP:  0.08;                

KEENE          CLOUDY   N/A N/A N/A N5        30.07S                  
LEBANON        CLOUDY    75  66  73 CALM      30.07F                  
6HR MIN TEMP:  69; 6HR MAX TEMP:  76; 6HR PCP: TRACE;                

MT WASHINGTON  DRZL/FOG  54  54 100 SE13        N/A  VSB 0            
6HR MIN TEMP:  51; 6HR MAX TEMP:  55; 6HR PCP: TRACE;                

$$

VTZ005-007-008-131900-
VERMONT
  
CITY           SKY/WX    TMP DP  RH WIND       PRES   REMARKS
ST JOHNSBURY     N/A     78  66  66 MISG      30.05F                  
MONTPELIER     CLOUDY    76  69  79 S8        30.12F                  
BURLINGTON     PTSUNNY   85  66  53 NW5       30.03F                  
$$

MAZ007-012-024-CTZ003-RIZ002-NYZ038-NYZ072-131900-
SOUTHERN NEW ENGLAND AND NY
  
CITY           SKY/WX    TMP DP  RH WIND       PRES   REMARKS
BOSTON         CLOUDY    73  69  87 NE13      30.04F FOG              
WORCESTER      LGT RAIN  66  66 100 NE7       30.06F VSB 1            
NANTUCKET      CLOUDY    71  69  93 NE9       30.02S                  
PROVIDENCE     LGT RAIN  72  71  97 NE7       30.02F FOG              
HARTFORD       LGT RAIN  73  70  90 N8        30.01F                  
ALBANY         CLOUDY    78  67  68 NE8       30.02F                  
NEW YORK CITY  LGT RAIN  74  70  87 NE17      29.94F                  
$$

ANZ081-ANZ082-ANZ150-NHZ014-MEZ023>029-131900-
COASTAL MARINE OBSERVATIONS
  
STATION/POSITION TIME  TEMP    WIND        PRES    WAVE
                       AIR SEA DIR/SP/G            HT/PER
                 (UTC) (F)     (DEG/KT/KT) (MB)    (FT/S)
MOUNT DESERT ROC 1800   63      60/  8/  9 1019.2F
MATINICUS ROCK   1700   62      40/ 12/ 13 1018.9F
ISLE OF SHOALS   1700   65      30/ 14/ 16 1017.7F
JEFFREYS LEDGE   1736      71                N/A     2/ 3
$$

.............KEY..............
   WCI - WIND CHILL
   TC  - TEMPERATURE IN CELSIUS
   VSB - VISIBILITY IN MILES
   HX  - HEAT INDEX
   FAIR- INDICATES FEW OR NO CLOUDS BELOW 12,000 FT, WITH NO 
         SIGNIFICANT WEATHER AND/OR OBSTRUCTIONS TO VISIBILITY.